Time,TemperatureF,DewpointF,PressureIn,WindDirection,WindDirectionDegrees,WindSpeedMPH,WindSpeedGustMPH,Humidity,HourlyPrecipIn,Conditions,Clouds,dailyrainin,SoftwareType,DateUTC
2013-03-11 00:00:00,18.0,12.0,-100.00,North,-999,-999.0,-999.0,78,-99.99,,,-99.99,,2013-03-11 06:00:00,
2013-03-11 00:33:00,18.0,12.0,-100.00,North,-999,-999.0,-999.0,78,-99.99,,,-99.99,,2013-03-11 06:33:00,
2013-03-11 00:42:00,18.0,12.0,-100.00,North,-999,-999.0,-999.0,78,-99.99,,,-99.99,,2013-03-11 06:42:00,
2013-03-11 00:53:00,18.0,12.0,-100.00,North,-999,-999.0,-999.0,78,-99.99,,,-99.99,,2013-03-11 06:53:00,
2013-03-11 01:00:00,15.0,11.0,-100.00,North,-999,-999.0,-999.0,84,-99.99,,,-99.99,,2013-03-11 07:00:00,
2013-03-11 01:32:00,15.0,11.0,-100.00,North,-999,-999.0,-999.0,84,-99.99,,,-99.99,,2013-03-11 07:32:00,
2013-03-11 01:42:00,15.0,11.0,-100.00,North,-999,-999.0,-999.0,84,-99.99,,,-99.99,,2013-03-11 07:42:00,
2013-03-11 01:52:00,15.0,11.0,-100.00,North,-999,-999.0,-999.0,84,-99.99,,,-99.99,,2013-03-11 07:52:00,
2013-03-11 02:33:00,13.0,10.0,-100.00,North,-999,-999.0,-999.0,85,-99.99,,,-99.99,,2013-03-11 08:33:00,
2013-03-11 03:32:00,13.0,10.0,-100.00,North,-999,-999.0,-999.0,85,-99.99,,,-99.99,,2013-03-11 09:32:00,
2013-03-11 05:33:00,16.0,13.0,-100.00,North,-999,-999.0,-999.0,85,-99.99,,,-99.99,,2013-03-11 11:33:00,
2013-03-11 06:33:00,20.0,16.0,-100.00,North,-999,-999.0,-999.0,84,-99.99,,,-99.99,,2013-03-11 12:33:00,
2013-03-11 06:43:00,20.0,16.0,-100.00,North,-999,-999.0,-999.0,84,-99.99,,,-99.99,,2013-03-11 12:43:00,
2013-03-11 07:00:00,20.0,16.0,-100.00,North,-999,-999.0,-999.0,84,-99.99,,,-99.99,,2013-03-11 13:00:00,
2013-03-11 07:33:00,20.0,16.0,-100.00,North,-999,-999.0,-999.0,84,-99.99,,,-99.99,,2013-03-11 13:33:00,
2013-03-11 07:43:00,20.0,16.0,-100.00,North,-999,-999.0,-999.0,84,-99.99,,,-99.99,,2013-03-11 13:43:00,
2013-03-11 07:52:00,20.0,16.0,-100.00,North,-999,-999.0,-999.0,84,-99.99,,,-99.99,,2013-03-11 13:52:00,
2013-03-11 08:00:00,21.0,17.0,-100.00,North,-999,-999.0,-999.0,81,-99.99,,,-99.99,,2013-03-11 14:00:00,
2013-03-11 08:33:00,21.0,17.0,-100.00,North,-999,-999.0,-999.0,81,-99.99,,,-99.99,,2013-03-11 14:33:00,
2013-03-11 08:42:00,21.0,17.0,-100.00,North,-999,-999.0,-999.0,81,-99.99,,,-99.99,,2013-03-11 14:42:00,
2013-03-11 08:53:00,21.0,17.0,-100.00,North,-999,-999.0,-999.0,81,-99.99,,,-99.99,,2013-03-11 14:53:00,
2013-03-11 09:00:00,28.0,13.0,-100.00,North,-999,-999.0,-999.0,53,-99.99,,,-99.99,,2013-03-11 15:00:00,
2013-03-11 09:32:00,28.0,13.0,-100.00,North,-999,-999.0,-999.0,53,-99.99,,,-99.99,,2013-03-11 15:32:00,
2013-03-11 09:42:00,28.0,13.0,-100.00,North,-999,-999.0,-999.0,53,-99.99,,,-99.99,,2013-03-11 15:42:00,
2013-03-11 09:53:00,28.0,13.0,-100.00,North,-999,-999.0,-999.0,53,-99.99,,,-99.99,,2013-03-11 15:53:00,
2013-03-11 10:00:00,31.0,17.0,-100.00,North,-999,-999.0,-999.0,54,-99.99,,,-99.99,,2013-03-11 16:00:00,
2013-03-11 10:32:00,31.0,17.0,-100.00,North,-999,-999.0,-999.0,54,-99.99,,,-99.99,,2013-03-11 16:32:00,
2013-03-11 10:43:00,31.0,17.0,-100.00,North,-999,-999.0,-999.0,54,-99.99,,,-99.99,,2013-03-11 16:43:00,
2013-03-11 10:52:00,31.0,17.0,-100.00,North,-999,-999.0,-999.0,54,-99.99,,,-99.99,,2013-03-11 16:52:00,
2013-03-11 11:00:00,33.0,19.0,-100.00,North,-999,-999.0,-999.0,54,-99.99,,,-99.99,,2013-03-11 17:00:00,
2013-03-11 11:38:00,33.0,19.0,-100.00,North,-999,-999.0,-999.0,54,-99.99,,,-99.99,,2013-03-11 17:38:00,
2013-03-11 11:53:00,33.0,19.0,-100.00,North,-999,-999.0,-999.0,54,-99.99,,,-99.99,,2013-03-11 17:53:00,
2013-03-11 12:00:00,34.0,19.0,-100.00,North,-999,-999.0,-999.0,55,-99.99,,,-99.99,,2013-03-11 18:00:00,
2013-03-11 12:33:00,34.0,19.0,-100.00,North,-999,-999.0,-999.0,55,-99.99,,,-99.99,,2013-03-11 18:33:00,
2013-03-11 12:42:00,34.0,19.0,-100.00,North,-999,-999.0,-999.0,55,-99.99,,,-99.99,,2013-03-11 18:42:00,
2013-03-11 12:53:00,34.0,19.0,-100.00,North,-999,-999.0,-999.0,55,-99.99,,,-99.99,,2013-03-11 18:53:00,
2013-03-11 13:00:00,33.0,22.0,-100.00,North,-999,-999.0,-999.0,64,-99.99,,,-99.99,,2013-03-11 19:00:00,
2013-03-11 13:33:00,33.0,22.0,-100.00,North,-999,-999.0,-999.0,64,-99.99,,,-99.99,,2013-03-11 19:33:00,
2013-03-11 13:43:00,33.0,22.0,-100.00,North,-999,-999.0,-999.0,64,-99.99,,,-99.99,,2013-03-11 19:43:00,
2013-03-11 13:52:00,33.0,22.0,-100.00,North,-999,-999.0,-999.0,64,-99.99,,,-99.99,,2013-03-11 19:52:00,
2013-03-11 14:00:00,36.0,23.0,-100.00,North,-999,-999.0,-999.0,59,-99.99,,,-99.99,,2013-03-11 20:00:00,
2013-03-11 14:33:00,36.0,23.0,-100.00,North,-999,-999.0,-999.0,59,-99.99,,,-99.99,,2013-03-11 20:33:00,
2013-03-11 14:44:00,36.0,23.0,-100.00,North,-999,-999.0,-999.0,59,-99.99,,,-99.99,,2013-03-11 20:44:00,
2013-03-11 14:53:00,36.0,23.0,-100.00,North,-999,-999.0,-999.0,59,-99.99,,,-99.99,,2013-03-11 20:53:00,
2013-03-11 15:00:00,34.0,22.0,-100.00,North,-999,-999.0,-999.0,60,-99.99,,,-99.99,,2013-03-11 21:00:00,
2013-03-11 15:33:00,34.0,22.0,-100.00,North,-999,-999.0,-999.0,60,-99.99,,,-99.99,,2013-03-11 21:33:00,
2013-03-11 15:44:00,34.0,22.0,-100.00,North,-999,-999.0,-999.0,60,-99.99,,,-99.99,,2013-03-11 21:44:00,
2013-03-11 15:53:00,34.0,22.0,-100.00,North,-999,-999.0,-999.0,60,-99.99,,,-99.99,,2013-03-11 21:53:00,
2013-03-11 16:00:00,35.0,21.0,-100.00,North,-999,-999.0,-999.0,57,-99.99,,,-99.99,,2013-03-11 22:00:00,
2013-03-11 16:32:00,35.0,21.0,-100.00,North,-999,-999.0,-999.0,57,-99.99,,,-99.99,,2013-03-11 22:32:00,
2013-03-11 16:43:00,35.0,21.0,-100.00,North,-999,-999.0,-999.0,57,-99.99,,,-99.99,,2013-03-11 22:43:00,
2013-03-11 16:53:00,35.0,21.0,-100.00,North,-999,-999.0,-999.0,57,-99.99,,,-99.99,,2013-03-11 22:53:00,
2013-03-11 17:00:00,37.0,20.0,-100.00,North,-999,-999.0,-999.0,50,-99.99,,,-99.99,,2013-03-11 23:00:00,
2013-03-11 17:33:00,37.0,20.0,-100.00,North,-999,-999.0,-999.0,50,-99.99,,,-99.99,,2013-03-11 23:33:00,
2013-03-11 17:43:00,37.0,20.0,-100.00,North,-999,-999.0,-999.0,50,-99.99,,,-99.99,,2013-03-11 23:43:00,
2013-03-11 17:53:00,37.0,20.0,-100.00,North,-999,-999.0,-999.0,50,-99.99,,,-99.99,,2013-03-11 23:53:00,
2013-03-11 18:00:00,34.0,21.0,-100.00,North,-999,-999.0,-999.0,59,-99.99,,,-99.99,,2013-03-12 00:00:00,
2013-03-11 18:33:00,34.0,21.0,-100.00,North,-999,-999.0,-999.0,59,-99.99,,,-99.99,,2013-03-12 00:33:00,
2013-03-11 18:43:00,34.0,21.0,-100.00,North,-999,-999.0,-999.0,59,-99.99,,,-99.99,,2013-03-12 00:43:00,
2013-03-11 18:53:00,34.0,21.0,-100.00,North,-999,-999.0,-999.0,59,-99.99,,,-99.99,,2013-03-12 00:53:00,
2013-03-11 19:00:00,33.0,21.0,-100.00,North,-999,-999.0,-999.0,60,-99.99,,,-99.99,,2013-03-12 01:00:00,
2013-03-11 19:33:00,33.0,21.0,-100.00,North,-999,-999.0,-999.0,60,-99.99,,,-99.99,,2013-03-12 01:33:00,
2013-03-11 19:42:00,33.0,21.0,-100.00,North,-999,-999.0,-999.0,60,-99.99,,,-99.99,,2013-03-12 01:42:00,
2013-03-11 19:52:00,33.0,21.0,-100.00,North,-999,-999.0,-999.0,60,-99.99,,,-99.99,,2013-03-12 01:52:00,
2013-03-11 20:00:00,32.0,21.0,-100.00,North,-999,-999.0,-999.0,63,-99.99,,,-99.99,,2013-03-12 02:00:00,
2013-03-11 20:32:00,32.0,21.0,-100.00,North,-999,-999.0,-999.0,63,-99.99,,,-99.99,,2013-03-12 02:32:00,
2013-03-11 20:43:00,32.0,21.0,-100.00,North,-999,-999.0,-999.0,63,-99.99,,,-99.99,,2013-03-12 02:43:00,
2013-03-11 20:52:00,32.0,21.0,-100.00,North,-999,-999.0,-999.0,63,-99.99,,,-99.99,,2013-03-12 02:52:00,
2013-03-11 21:00:00,33.0,22.0,-100.00,North,-999,-999.0,-999.0,62,-99.99,,,-99.99,,2013-03-12 03:00:00,
2013-03-11 21:32:00,33.0,22.0,-100.00,North,-999,-999.0,-999.0,62,-99.99,,,-99.99,,2013-03-12 03:32:00,
2013-03-11 21:42:00,33.0,22.0,-100.00,North,-999,-999.0,-999.0,62,-99.99,,,-99.99,,2013-03-12 03:42:00,
2013-03-11 21:52:00,33.0,22.0,-100.00,North,-999,-999.0,-999.0,62,-99.99,,,-99.99,,2013-03-12 03:52:00,
2013-03-11 22:00:00,32.0,24.0,-100.00,North,-999,-999.0,-999.0,69,-99.99,,,-99.99,,2013-03-12 04:00:00,
2013-03-11 22:32:00,32.0,24.0,-100.00,North,-999,-999.0,-999.0,69,-99.99,,,-99.99,,2013-03-12 04:32:00,
2013-03-11 22:43:00,32.0,24.0,-100.00,North,-999,-999.0,-999.0,69,-99.99,,,-99.99,,2013-03-12 04:43:00,
2013-03-11 22:52:00,32.0,24.0,-100.00,North,-999,-999.0,-999.0,69,-99.99,,,-99.99,,2013-03-12 04:52:00,
2013-03-11 23:00:00,32.0,24.0,-100.00,North,-999,-999.0,-999.0,73,-99.99,,,-99.99,,2013-03-12 05:00:00,
2013-03-11 23:32:00,32.0,24.0,-100.00,North,-999,-999.0,-999.0,73,-99.99,,,-99.99,,2013-03-12 05:32:00,
2013-03-11 23:42:00,32.0,24.0,-100.00,North,-999,-999.0,-999.0,73,-99.99,,,-99.99,,2013-03-12 05:42:00,
2013-03-11 23:52:00,32.0,24.0,-100.00,North,-999,-999.0,-999.0,73,-99.99,,,-99.99,,2013-03-12 05:52:00,